Wind_Speed
29 27 26 23 20 17 17 20 25 26 25 23 19 20 23 24 24 24 22 22 20 19 19 18 18 17 17 17 16 15 15 15 14 14 13 12 13 14 16 17 17 17 16 16 17 18 18 19 20
31 30 29 26 23 19 20 23 25 25 24 22 21 23 25 25 24 24 22 22 21 20 19 19 19 18 18 17 16 15 15 15 14 14 13 12 13 15 17 18 19 18 18 17 17 17 18 19 20
31 32 32 29 25 23 23 24 25 22 21 22 22 25 26 25 24 24 23 23 22 20 20 20 20 19 18 17 16 15 14 14 14 14 14 13 13 15 16 18 19 20 19 19 19 20 20 21 22
31 33 34 32 27 25 25 26 24 21 20 21 23 25 27 26 24 23 22 22 22 21 20 20 21 20 19 17 16 14 14 14 14 14 14 14 15 15 16 17 19 20 21 22 22 23 23 24 24
32 32 34 33 30 28 29 28 25 22 22 22 23 26 26 26 24 22 21 21 22 22 21 21 21 21 19 18 15 14 13 14 14 14 15 15 16 16 17 17 18 20 21 23 24 25 26 27 27
35 33 34 32 31 31 33 31 27 23 24 24 24 25 25 24 24 22 21 19 20 21 21 21 21 21 20 19 16 14 13 14 14 15 16 16 17 18 19 19 20 21 21 23 24 25 26 27 28
37 36 34 31 32 34 35 32 28 25 25 25 23 24 24 24 24 23 21 19 19 20 21 22 23 22 22 20 17 15 14 14 14 15 16 17 18 19 20 21 22 23 23 24 25 26 26 27 28
37 38 35 32 31 32 36 35 31 29 27 26 24 25 25 26 25 23 21 19 20 20 21 23 23 23 23 21 19 17 16 15 14 14 15 17 18 18 19 20 21 23 24 25 26 27 28 29 29
37 38 33 30 30 30 37 38 37 33 28 26 25 27 28 29 27 24 22 21 21 21 22 23 23 24 23 22 21 19 18 17 15 15 16 17 17 18 19 19 20 20 22 23 24 25 27 28 30
37 35 29 29 30 31 37 40 40 36 29 26 26 28 31 30 27 25 23 23 23 23 22 23 23 24 23 23 23 21 20 19 18 17 18 18 19 19 20 20 20 21 21 22 23 24 26 28 30
37 34 30 30 32 35 39 41 41 38 31 27 28 30 32 29 26 26 26 25 25 24 23 23 23 24 24 24 24 23 22 21 21 21 21 22 22 22 23 23 24 24 24 25 26 27 28 30 31
39 36 35 33 34 37 40 42 42 39 33 30 30 31 32 29 28 28 28 27 27 25 24 23 24 25 25 25 25 24 24 24 24 24 24 25 26 26 26 27 27 27 28 28 29 31 32 33 34
41 40 39 37 37 39 41 43 42 39 35 34 32 32 33 31 29 29 29 28 28 26 25 23 23 25 25 25 26 25 25 25 25 25 25 27 28 29 30 31 31 32 32 32 32 34 35 36 37
43 42 41 40 40 40 42 42 41 37 36 36 36 34 34 33 30 29 29 29 28 26 26 25 25 25 24 24 24 25 25 25 25 25 26 28 30 32 33 34 35 35 35 35 36 36 37 38 39
44 44 44 43 43 42 44 44 41 37 35 37 37 36 36 34 30 29 30 29 28 26 25 26 26 25 24 22 23 23 24 24 25 25 26 28 30 31 32 33 34 35 36 37 38 39 39 39 40
45 46 46 45 46 45 47 44 40 39 36 37 37 38 38 34 30 30 30 29 28 26 25 26 26 25 23 22 21 22 22 23 24 25 27 28 30 31 31 31 31 32 34 36 37 39 40 41 41
47 47 47 46 47 48 50 46 43 41 38 38 38 39 39 35 30 29 31 29 27 26 26 26 26 24 23 22 21 21 22 23 24 26 28 30 30 30 30 31 32 33 35 37 38 40 41 41 42
47 48 48 48 48 49 50 48 46 44 41 40 39 40 41 36 30 30 31 30 28 27 27 26 25 24 23 22 22 23 23 24 26 28 30 30 31 31 31 32 34 36 38 40 41 42 43 43 42
51 52 52 51 50 52 53 52 49 47 44 42 41 41 40 36 32 30 30 29 28 28 27 26 25 24 24 23 24 24 25 26 28 30 30 31 31 33 34 36 38 39 41 42 42 43 44 44 43
52 53 52 52 51 53 54 54 52 50 47 45 43 42 41 37 33 30 29 29 29 28 27 26 26 25 25 25 25 26 27 28 30 31 31 32 34 35 37 39 40 41 42 42 42 42 43 44 44
53 53 51 51 50 53 55 56 54 52 50 48 45 43 42 38 33 30 30 29 29 28 27 26 26 26 27 27 27 28 29 31 31 32 33 34 36 38 40 42 42 42 42 42 43 43 43 45 48
51 49 50 50 51 52 53 56 55 52 51 49 45 43 42 37 33 30 30 30 29 28 27 27 27 28 28 28 29 30 31 32 32 33 35 37 39 41 42 42 42 42 43 43 44 45 46 49 51
47 46 48 49 51 52 52 56 55 51 51 48 44 43 41 37 33 30 30 30 29 28 27 27 27 28 29 29 30 31 32 33 34 35 37 39 41 42 43 42 42 43 44 45 46 48 51 54 57
43 45 47 49 50 54 50 53 55 49 46 45 43 42 40 36 33 30 31 30 28 28 28 27 27 28 29 30 31 32 33 34 35 37 39 41 42 43 43 43 44 44 46 47 49 52 55 58 62
40 41 44 47 51 53 47 52 53 43 41 40 40 40 38 35 32 30 30 30 29 28 27 27 27 28 29 30 31 32 34 35 37 39 40 41 42 43 44 44 45 46 48 50 53 56 59 62 65
36 39 42 44 47 46 46 51 47 38 38 38 38 38 36 33 31 30 31 30 29 28 27 27 27 28 29 30 31 33 35 37 39 40 41 42 43 44 44 45 46 48 50 53 56 59 62 65 67
34 36 35 39 39 40 43 44 40 36 35 35 35 35 32 31 30 30 30 29 27 27 27 27 27 28 29 31 32 34 36 38 39 40 42 43 44 44 45 47 49 51 53 56 59 62 65 67 68
31 32 36 39 34 35 38 40 37 34 33 32 31 30 28 29 29 29 27 26 26 26 26 26 27 28 29 31 33 34 36 38 40 41 42 43 44 45 47 49 51 54 56 59 63 65 66 67 68
28 33 37 35 32 29 32 32 29 28 27 26 26 27 27 27 27 26 25 24 24 24 25 25 27 28 30 31 33 34 36 39 40 41 43 44 45 47 49 51 54 56 60 62 64 66 67 68 69
23 29 35 35 30 25 24 26 26 26 26 26 27 27 27 26 25 24 23 23 23 23 23 25 26 28 30 31 33 35 37 39 40 42 43 45 47 49 51 54 57 60 62 64 66 66 68 70 72
Wind_Direction
244 244 246 248 248 247 241 240 244 247 249 253 256 254 253 250 249 251 253 258 261 264 269 274 279 281 284 287 289 291 291 289 286 285 284 279 272 264 258 256 255 257 260 260 258 254 254 254 257
243 242 243 244 245 243 239 241 246 249 251 251 250 250 253 252 251 252 253 256 259 261 265 270 274 274 277 281 284 287 289 288 285 282 278 275 268 262 259 256 254 256 258 260 259 257 257 258 260
245 241 241 241 242 242 244 246 248 251 251 250 247 247 252 252 252 251 252 256 259 261 263 267 268 268 270 273 278 284 287 287 283 279 275 272 269 264 261 259 257 256 258 259 260 260 261 263 264
248 244 241 240 240 242 245 248 252 252 248 246 244 245 248 251 251 250 251 255 260 262 263 265 264 263 263 265 271 279 284 284 280 276 273 272 271 269 266 263 259 258 259 260 261 262 264 266 267
251 248 243 239 239 241 243 245 248 250 246 243 242 245 247 249 251 251 250 253 259 263 265 265 262 259 256 258 263 271 277 278 276 275 273 272 271 270 270 268 265 264 264 265 266 267 269 270 271
251 249 246 241 238 240 243 243 245 248 249 247 245 245 248 249 249 249 249 252 258 263 266 266 261 256 252 253 257 262 269 273 275 276 277 275 274 272 272 271 270 270 269 270 271 272 272 272 273
251 250 247 241 237 239 243 245 246 250 252 250 248 247 247 247 247 248 249 252 258 263 266 265 261 255 250 249 251 254 261 268 273 276 279 279 278 278 277 276 275 275 275 275 274 274 274 274 275
251 250 248 243 238 240 244 243 242 244 248 248 246 244 243 243 243 245 247 252 258 263 265 265 260 254 249 247 247 250 255 263 269 276 280 282 283 283 283 282 280 279 278 277 276 276 275 275 276
252 252 251 246 240 240 245 243 240 239 242 245 243 243 242 241 241 243 247 252 259 265 267 265 260 253 250 246 245 248 253 259 266 274 280 286 288 289 289 287 286 285 283 282 281 280 279 279 278
253 254 252 246 239 237 244 244 241 239 238 243 243 243 244 244 245 248 252 256 261 266 268 266 260 253 251 248 246 248 253 257 265 273 280 286 291 292 292 290 289 288 288 288 288 287 286 285 283
254 253 250 244 239 235 240 245 243 240 235 239 242 244 247 247 247 250 253 258 261 263 265 263 259 254 253 252 249 249 254 260 267 274 279 285 289 293 294 294 293 292 292 291 291 291 290 290 289
253 251 250 245 240 238 239 243 245 241 237 237 240 243 248 247 245 246 249 253 258 261 263 260 256 253 254 255 254 254 257 262 268 274 279 284 288 291 292 292 291 290 290 290 290 291 293 294 293
251 250 249 246 242 241 240 242 245 242 237 236 238 242 248 249 246 246 249 252 254 259 262 258 254 252 252 254 255 256 260 265 271 277 282 285 288 290 291 290 289 288 289 290 290 291 293 295 295
251 250 249 248 246 244 243 243 245 243 239 236 237 240 246 249 247 247 249 251 252 255 259 258 255 254 253 253 254 255 260 266 273 278 283 286 289 290 290 289 288 287 288 289 290 291 293 294 295
250 249 248 248 247 246 246 245 246 246 241 238 237 238 243 246 247 246 249 250 251 252 255 256 254 254 253 253 254 257 259 263 270 276 281 286 289 291 290 290 288 288 287 288 289 290 292 293 293
249 248 247 246 246 245 245 245 245 246 242 239 238 238 241 244 245 245 247 249 249 250 253 253 252 251 252 254 255 258 260 265 272 278 284 288 291 293 293 292 291 289 289 289 289 290 291 292 292
249 249 249 248 247 246 245 244 242 244 242 240 238 238 240 242 243 242 244 246 248 249 252 252 249 249 251 253 255 259 264 271 277 283 287 290 292 293 293 293 292 291 291 291 292 292 292 292 291
254 252 249 248 247 246 246 244 241 241 240 239 238 238 239 240 240 240 241 243 246 250 252 252 249 248 250 252 255 261 268 275 281 286 289 290 291 292 293 293 293 293 294 294 294 293 292 291 290
252 250 249 247 245 244 243 242 239 237 237 238 238 238 238 238 237 237 239 241 244 249 252 253 249 248 249 252 257 264 272 278 284 288 289 289 290 292 293 294 294 295 295 295 295 294 293 292 291
253 251 249 247 244 243 242 241 238 236 234 236 236 237 237 235 234 234 236 238 242 248 252 253 250 249 251 255 260 267 274 279 284 287 288 289 291 293 294 295 295 296 296 296 295 295 294 293 292
252 251 248 246 242 242 241 239 237 235 233 233 234 235 235 233 231 232 234 236 240 245 250 251 251 252 254 257 262 269 275 280 284 286 288 290 292 294 295 296 297 297 297 297 297 296 296 296 296
252 250 246 243 241 239 239 239 234 233 231 231 232 233 234 232 230 230 232 234 237 242 247 250 251 253 255 258 263 269 275 280 283 286 289 291 293 295 296 297 298 298 298 298 298 297 297 298 298
250 245 243 240 239 237 235 238 232 230 229 229 229 231 233 230 228 228 230 233 236 240 245 249 252 254 256 259 264 269 275 279 283 287 289 292 294 296 297 298 298 298 298 298 298 299 299 299 299
246 241 238 237 236 236 232 235 232 226 227 226 226 229 231 229 227 227 230 232 236 240 244 249 252 254 256 260 264 269 275 279 283 287 290 293 295 296 297 298 298 298 298 298 298 299 299 299 299
243 239 237 235 233 234 229 231 230 221 222 222 224 226 227 227 226 227 229 231 235 240 244 249 252 254 257 261 265 270 275 280 284 288 290 293 295 296 297 297 297 297 297 298 298 299 300 300 300
240 237 235 234 234 233 229 229 223 218 217 218 220 221 222 222 223 225 226 229 235 240 246 250 253 255 258 262 267 272 277 281 285 288 291 293 294 296 296 296 296 297 297 298 299 300 301 301 302
233 231 229 228 227 229 224 222 219 213 214 215 218 218 218 219 221 223 225 229 235 240 246 250 254 257 260 265 270 274 279 283 287 290 292 293 294 295 295 296 297 298 299 300 301 302 303 303 304
229 224 220 217 216 221 222 221 214 211 214 216 214 212 214 217 219 221 224 229 234 240 245 251 255 259 263 268 273 277 281 285 288 291 292 294 294 295 296 297 298 299 300 301 303 304 305 305 305
223 216 209 206 203 208 217 213 205 204 207 206 204 205 209 213 215 217 221 227 233 239 246 252 257 262 266 271 275 280 284 287 290 291 293 294 295 296 297 298 300 301 302 303 304 305 306 306 306
213 206 203 196 190 193 202 202 194 193 191 192 195 200 205 208 210 214 219 227 234 242 249 255 260 265 270 274 278 282 286 288 291 292 294 295 296 297 299 300 301 303 304 305 306 306 307 307 307
Height
5826 5828 5830 5832 5834 5835 5835 5834 5833 5835 5837 5840 5841 5841 5841 5843 5845 5848 5848 5847 5848 5849 5849 5850 5850 5849 5849 5848 5848 5848 5847 5846 5846 5845 5845 5845 5845 5844 5844 5844 5843 5843 5843 5843 5842 5842 5841 5841 5840
5821 5823 5826 5827 5829 5830 5831 5830 5830 5831 5834 5836 5837 5836 5836 5839 5841 5843 5844 5844 5845 5846 5846 5846 5846 5846 5846 5845 5845 5845 5845 5844 5843 5843 5842 5842 5842 5841 5841 5841 5840 5840 5840 5839 5839 5838 5837 5837 5836
5815 5817 5820 5822 5824 5826 5826 5826 5826 5828 5830 5831 5832 5832 5832 5835 5837 5838 5840 5840 5841 5842 5843 5843 5843 5843 5843 5843 5843 5842 5842 5842 5841 5840 5840 5839 5839 5838 5838 5838 5837 5837 5836 5836 5835 5834 5834 5833 5833
5809 5812 5814 5817 5820 5821 5821 5822 5823 5824 5825 5826 5827 5827 5828 5830 5832 5834 5836 5837 5837 5838 5839 5839 5839 5839 5839 5840 5840 5840 5840 5839 5839 5838 5837 5837 5836 5836 5835 5834 5834 5833 5833 5832 5831 5831 5830 5829 5829
5803 5805 5808 5811 5815 5816 5815 5816 5818 5820 5820 5821 5822 5823 5824 5826 5828 5830 5832 5833 5833 5834 5835 5835 5835 5836 5836 5837 5837 5837 5837 5837 5836 5835 5835 5834 5834 5833 5833 5832 5831 5830 5829 5828 5828 5827 5826 5826 5825
5796 5798 5801 5806 5809 5809 5809 5811 5814 5816 5817 5817 5818 5819 5820 5822 5823 5825 5827 5829 5830 5830 5831 5831 5831 5832 5832 5833 5834 5835 5834 5834 5833 5833 5832 5832 5831 5831 5830 5829 5828 5827 5826 5825 5824 5823 5822 5821 5820
5789 5791 5794 5799 5802 5803 5804 5806 5810 5812 5812 5813 5814 5815 5816 5818 5819 5821 5823 5825 5826 5826 5827 5827 5828 5828 5829 5830 5831 5832 5831 5831 5830 5830 5829 5829 5828 5828 5827 5826 5825 5823 5822 5821 5820 5819 5818 5817 5815
5782 5784 5787 5792 5796 5798 5797 5800 5803 5806 5807 5808 5810 5810 5811 5813 5815 5816 5819 5821 5822 5823 5823 5823 5823 5824 5825 5826 5827 5828 5828 5828 5827 5827 5827 5826 5825 5824 5823 5822 5821 5819 5818 5816 5815 5814 5812 5811 5809
5774 5777 5781 5787 5791 5793 5790 5792 5796 5799 5802 5803 5804 5805 5806 5807 5810 5812 5814 5817 5818 5818 5819 5819 5819 5820 5821 5822 5823 5824 5824 5824 5824 5824 5823 5823 5822 5820 5819 5818 5816 5814 5813 5811 5810 5808 5806 5805 5803
5767 5770 5777 5781 5784 5785 5782 5783 5788 5793 5797 5799 5799 5799 5799 5803 5807 5809 5811 5812 5813 5814 5814 5814 5815 5816 5817 5818 5819 5820 5821 5821 5821 5820 5820 5819 5818 5816 5815 5813 5811 5810 5808 5806 5804 5802 5801 5799 5797
5761 5765 5770 5772 5775 5777 5775 5775 5779 5785 5791 5794 5794 5793 5794 5798 5802 5804 5805 5807 5808 5809 5810 5810 5810 5811 5812 5813 5815 5816 5817 5817 5817 5816 5816 5815 5813 5812 5810 5808 5807 5805 5803 5801 5799 5797 5795 5793 5790
5754 5758 5761 5764 5766 5768 5769 5769 5772 5778 5784 5787 5787 5787 5788 5792 5796 5798 5800 5801 5802 5804 5806 5806 5806 5807 5808 5809 5810 5812 5813 5813 5813 5812 5811 5810 5809 5807 5805 5804 5802 5800 5798 5796 5794 5791 5789 5786 5783
5745 5749 5752 5755 5757 5759 5761 5761 5764 5770 5776 5779 5781 5782 5782 5786 5789 5792 5793 5796 5797 5799 5800 5802 5802 5803 5804 5805 5806 5807 5808 5808 5808 5807 5806 5805 5803 5802 5800 5798 5796 5794 5792 5790 5788 5785 5783 5780 5777
5737 5740 5743 5746 5749 5751 5752 5754 5757 5762 5767 5770 5773 5776 5777 5779 5783 5786 5788 5789 5792 5794 5795 5796 5797 5799 5800 5801 5802 5803 5804 5803 5802 5802 5801 5799 5798 5796 5793 5791 5789 5788 5786 5784 5781 5779 5776 5773 5770
5727 5730 5733 5737 5740 5742 5743 5746 5751 5756 5760 5762 5766 5769 5770 5773 5777 5780 5782 5783 5786 5788 5790 5790 5792 5793 5795 5797 5798 5798 5799 5798 5798 5797 5796 5794 5792 5789 5787 5785 5783 5781 5778 5776 5774 5771 5768 5765 5762
5716 5719 5723 5727 5729 5731 5733 5738 5746 5748 5752 5754 5758 5761 5764 5767 5771 5774 5776 5778 5780 5783 5784 5785 5786 5788 5790 5791 5792 5793 5793 5793 5792 5791 5790 5788 5785 5783 5780 5778 5776 5774 5771 5769 5766 5763 5760 5757 5753
5705 5709 5713 5718 5719 5720 5722 5730 5737 5739 5743 5746 5750 5753 5756 5760 5765 5768 5769 5772 5774 5776 5778 5780 5781 5783 5784 5786 5786 5787 5787 5786 5786 5785 5783 5781 5778 5776 5774 5771 5769 5767 5764 5761 5758 5754 5751 5748 5745
5696 5699 5702 5705 5707 5708 5711 5719 5726 5730 5734 5738 5741 5744 5748 5753 5758 5760 5763 5766 5768 5770 5772 5773 5775 5777 5779 5780 5780 5781 5780 5780 5779 5778 5776 5774 5771 5769 5767 5764 5762 5759 5756 5753 5749 5745 5742 5739 5736
5680 5683 5687 5691 5693 5694 5699 5706 5713 5719 5724 5728 5733 5736 5741 5746 5751 5754 5757 5759 5762 5764 5766 5767 5769 5771 5773 5774 5774 5774 5774 5773 5772 5771 5769 5767 5764 5762 5760 5757 5754 5751 5747 5744 5740 5735 5731 5728 5725
5667 5670 5675 5678 5679 5681 5686 5693 5701 5707 5714 5719 5724 5728 5732 5738 5743 5747 5750 5753 5756 5758 5759 5761 5763 5765 5766 5767 5768 5768 5768 5767 5766 5764 5762 5759 5757 5755 5752 5749 5745 5742 5738 5734 5730 5726 5722 5718 5714
5653 5658 5662 5664 5666 5668 5673 5680 5689 5696 5703 5708 5714 5719 5723 5730 5736 5740 5744 5747 5750 5752 5754 5755 5757 5758 5760 5761 5761 5761 5761 5760 5758 5756 5754 5752 5750 5747 5743 5740 5736 5732 5728 5724 5720 5716 5712 5707 5702
5640 5645 5647 5649 5651 5656 5661 5666 5677 5684 5692 5699 5706 5711 5716 5723 5729 5734 5737 5740 5743 5746 5748 5750 5751 5752 5753 5754 5755 5754 5754 5752 5751 5749 5747 5744 5741 5738 5734 5730 5726 5722 5718 5714 5710 5705 5701 5697 5692
5628 5630 5632 5635 5638 5642 5649 5654 5665 5673 5682 5691 5699 5704 5709 5716 5722 5727 5730 5733 5737 5740 5742 5743 5745 5746 5747 5748 5748 5747 5746 5745 5743 5741 5739 5736 5733 5729 5725 5721 5717 5712 5708 5704 5699 5695 5690 5685 5679
5614 5616 5618 5621 5623 5629 5642 5643 5652 5666 5676 5684 5691 5696 5702 5709 5715 5720 5723 5727 5731 5734 5736 5737 5739 5740 5740 5741 5740 5740 5739 5737 5735 5733 5730 5727 5723 5719 5716 5712 5707 5703 5699 5694 5689 5684 5678 5672 5665
5601 5605 5608 5609 5611 5619 5633 5631 5643 5662 5669 5676 5683 5689 5696 5702 5708 5713 5717 5721 5724 5727 5729 5731 5732 5733 5733 5733 5733 5732 5731 5729 5727 5725 5722 5719 5715 5710 5706 5702 5698 5693 5689 5684 5679 5673 5666 5659 5651
5591 5595 5599 5603 5606 5615 5620 5622 5639 5653 5659 5666 5674 5681 5688 5695 5701 5706 5710 5714 5717 5720 5723 5724 5725 5726 5726 5726 5726 5725 5723 5721 5719 5716 5713 5710 5706 5702 5697 5693 5688 5684 5679 5673 5667 5660 5653 5644 5636
5581 5584 5592 5596 5600 5606 5611 5620 5632 5643 5651 5659 5667 5675 5682 5689 5694 5699 5704 5708 5711 5714 5716 5718 5719 5719 5719 5719 5718 5717 5715 5712 5710 5707 5704 5700 5696 5692 5688 5683 5678 5673 5667 5661 5654 5646 5638 5629 5620
5574 5579 5583 5587 5594 5601 5608 5615 5627 5638 5647 5656 5663 5671 5677 5683 5688 5693 5698 5702 5705 5707 5709 5711 5712 5712 5712 5711 5710 5709 5706 5704 5701 5698 5695 5691 5687 5682 5678 5673 5668 5662 5655 5648 5640 5632 5623 5614 5604
5568 5572 5577 5584 5591 5599 5606 5616 5626 5635 5644 5653 5660 5667 5673 5678 5683 5687 5692 5696 5699 5701 5703 5705 5705 5705 5705 5704 5702 5700 5698 5695 5692 5689 5685 5681 5677 5672 5667 5662 5656 5649 5642 5634 5626 5617 5608 5598 5588
5564 5569 5575 5582 5589 5596 5604 5616 5624 5632 5640 5648 5655 5662 5667 5673 5677 5682 5686 5690 5693 5695 5697 5698 5698 5698 5697 5696 5695 5692 5690 5686 5683 5680 5676 5672 5667 5662 5656 5650 5644 5636 5628 5619 5611 5602 5592 5582 5572